Location: Gunnedah
(30.9923°S, 150.2369°E)
Time: 05:55:08
(UTC+10:00)

LightSail 2 - Visible Passes

Search period start: 22 August 2019 00:00
Search period end: 01 September 2019 00:00
Orbit: 701 x 732 km, 24.0° (Epoch: 21 August)

Date Brightness Start Highest point End Pass type
(mag) Time Alt. Az. Time Alt. Az. Time Alt. Az.
23 Aug 7.5 05:55:10 10° NNW 05:58:45 19° NNE 06:02:22 10° ENE visible
24 Aug 7.6 04:59:08 10° NNW 05:01:56 15° NNE 05:04:45 10° NE visible
25 Aug 7.7 04:04:31 11° NNE 04:05:08 11° NNE 04:06:22 10° NE visible
25 Aug 6.9 05:45:53 10° NW 05:50:09 26° NNE 05:54:28 10° ENE visible
26 Aug 7.1 04:50:22 14° NNW 04:53:18 21° NNE 04:57:13 10° ENE visible
27 Aug 7.3 03:57:05 17° NNE 03:57:05 17° NNE 03:59:48 10° ENE visible
27 Aug 6.5 05:36:57 10° NW 05:41:33 33° N 05:46:13 10° ENE visible
28 Aug 6.6 04:42:47 23° NNW 04:44:40 29° NNE 04:49:08 10° ENE visible
29 Aug 7.2 03:49:23 21° NE 03:49:23 21° NE 03:51:56 10° ENE visible
29 Aug 6.2 05:28:25 11° WNW 05:32:59 37° N 05:37:47 10° ENE visible
30 Aug 6.1 04:34:58 31° NNW 04:36:04 35° N 04:40:46 10° ENE visible
31 Aug 7.2 03:41:29 22° NE 03:41:29 22° NE 03:43:42 10° ENE visible
31 Aug 6.1 05:20:31 15° WNW 05:24:24 38° N 05:29:12 10° ENE visible
